Snow/Ice From: 16-12-2017 16:00 Until: 17-12-2017 16:00 warning for: Snow/Ice Level: Yellow info button

Although rather usual in this region, locally or potentially dangerous phenomena are expected. (such as local winds, summer thunderstorms, rising streams or high waves) Be aware and pay attention to the latest weather updates, especially if you carry out activities exposed to weather or close to a stream or shoreline. 


Meteo18 Weather Cam more information Meteo18 Weather Cam


Thunder radar more information blitzortung!


warning for Snow/Ice more information rain snow radar


Visit our other weather sites:

Template documentation
and downloads

And another site



Weather Underground History page Text

Daily Summary for February 28, 2016 Units:  Metric    English   Both
« Previous Day
Next Day »
Daily Weekly Monthly Yearly Custom
  High: Low: Average:
Temperature: 6.1 °C -0.1 °C 2.8 °C
Dew Point: 1.6 °C -1.8 °C 0.1 °C
Humidity: 90 % 70 % 83 %
Wind Speed: 19.3 km/h 0.0 km/h 6 km/h
Wind Gust: 25.7 km/h - -
Wind:- - ENE
Pressure: 1011.7 hPa 1001.9 hPa -
Precipitation: 0.0 mm    
Historical Graphs
 
 
Tabular Data for February 28, 2016
Time Temperature Dew Point Pressure Wind Wind Speed Wind Gust Humidity Rainfall Rate (Hourly)
00:02 3.5 °C 0.9 °C 1001.9 hPa East 3.2 km/h 17.7 km/h 83 % 0.0 mm
00:07 3.5 °C 0.7 °C 1001.9 hPa SE 4.8 km/h 17.7 km/h 82 % 0.0 mm
00:12 3.4 °C 0.8 °C 1002.3 hPa East 4.8 km/h 17.7 km/h 83 % 0.0 mm
00:17 3.2 °C 0.6 °C 1001.9 hPa ENE 12.9 km/h 17.7 km/h 83 % 0.0 mm
00:22 3.2 °C 0.6 °C 1002.3 hPa ENE 3.2 km/h 17.7 km/h 83 % 0.0 mm
00:32 3.1 °C 0.7 °C 1002.3 hPa NNE 4.8 km/h 12.9 km/h 84 % 0.0 mm
00:37 3.1 °C 0.5 °C 1002.3 hPa NE 8.0 km/h 16.1 km/h 83 % 0.0 mm
00:42 3.0 °C 0.4 °C 1002.3 hPa NE 6.4 km/h 16.1 km/h 83 % 0.0 mm
00:47 3.0 °C 0.4 °C 1001.9 hPa NE 6.4 km/h 16.1 km/h 83 % 0.0 mm
00:57 2.9 °C 0.5 °C 1002.3 hPa ENE 9.7 km/h 14.5 km/h 84 % 0.0 mm
01:02 2.8 °C 0.2 °C 1002.3 hPa ENE 1.6 km/h 14.5 km/h 83 % 0.0 mm
01:12 2.8 °C 0.2 °C 1002.3 hPa East 3.2 km/h 14.5 km/h 83 % 0.0 mm
01:17 2.8 °C 0.2 °C 1002.3 hPa South 3.2 km/h 16.1 km/h 83 % 0.0 mm
01:27 2.7 °C 0.1 °C 1002.3 hPa ENE 3.2 km/h 22.5 km/h 83 % 0.0 mm
01:32 2.6 °C 0.0 °C 1002.3 hPa ENE 8.0 km/h 22.5 km/h 83 % 0.0 mm
01:37 2.6 °C 0.0 °C 1002.3 hPa NE 6.4 km/h 12.9 km/h 83 % 0.0 mm
01:42 2.5 °C 0.1 °C 1002.3 hPa ENE 3.2 km/h 11.3 km/h 84 % 0.0 mm
01:47 2.3 °C 0.0 °C 1002.3 hPa NE 6.4 km/h 9.7 km/h 85 % 0.0 mm
01:52 2.3 °C -0.1 °C 1002.3 hPa ENE 6.4 km/h 8.0 km/h 84 % 0.0 mm
01:57 2.2 °C -0.1 °C 1002.3 hPa NE 12.9 km/h 12.9 km/h 85 % 0.0 mm
02:02 2.2 °C -0.1 °C 1002.3 hPa East 8.0 km/h 11.3 km/h 85 % 0.0 mm
02:07 2.2 °C -0.1 °C 1002.3 hPa East 3.2 km/h 12.9 km/h 85 % 0.0 mm
02:12 2.1 °C -0.2 °C 1002.3 hPa NE 3.2 km/h 12.9 km/h 85 % 0.0 mm
02:17 2.1 °C -0.2 °C 1002.3 hPa SE 3.2 km/h 16.1 km/h 85 % 0.0 mm
02:22 2.0 °C -0.3 °C 1002.3 hPa East 6.4 km/h 16.1 km/h 85 % 0.0 mm
02:27 1.9 °C -0.4 °C 1002.3 hPa NE 1.6 km/h 16.1 km/h 85 % 0.0 mm
02:32 1.8 °C -0.3 °C 1002.3 hPa ENE 3.2 km/h 14.5 km/h 86 % 0.0 mm
02:37 1.8 °C -0.3 °C 1002.3 hPa NE 4.8 km/h 14.5 km/h 86 % 0.0 mm
02:42 1.8 °C -0.3 °C 1002.3 hPa NE 4.8 km/h 14.5 km/h 86 % 0.0 mm
02:47 1.8 °C -0.3 °C 1002.3 hPa NE 3.2 km/h 14.5 km/h 86 % 0.0 mm
02:52 1.7 °C -0.4 °C 1002.6 hPa NNE 3.2 km/h 14.5 km/h 86 % 0.0 mm
02:57 1.6 °C -0.3 °C 1002.6 hPa ENE 3.2 km/h 12.9 km/h 87 % 0.0 mm
03:02 1.6 °C -0.3 °C 1002.3 hPa South 1.6 km/h 12.9 km/h 87 % 0.0 mm
03:12 1.6 °C -0.3 °C 1002.3 hPa South 6.4 km/h 11.3 km/h 87 % 0.0 mm
03:17 1.7 °C -0.4 °C 1002.3 hPa East 9.7 km/h 12.9 km/h 86 % 0.0 mm
03:22 1.7 °C -0.4 °C 1002.3 hPa NE 8.0 km/h 20.9 km/h 86 % 0.0 mm
03:27 1.7 °C -0.6 °C 1002.3 hPa ESE 6.4 km/h 20.9 km/h 85 % 0.0 mm
03:32 1.7 °C -0.4 °C 1002.3 hPa NE 14.5 km/h 20.9 km/h 86 % 0.0 mm
03:37 1.6 °C -0.5 °C 1002.3 hPa NNE 12.9 km/h 19.3 km/h 86 % 0.0 mm
03:42 1.5 °C -0.6 °C 1002.3 hPa ENE 16.1 km/h 19.3 km/h 86 % 0.0 mm
03:47 1.4 °C -0.7 °C 1002.3 hPa East 4.8 km/h 20.9 km/h 86 % 0.0 mm
03:52 1.4 °C -0.7 °C 1002.3 hPa ENE 4.8 km/h 22.5 km/h 86 % 0.0 mm
03:57 1.3 °C -0.8 °C 1002.3 hPa NE 9.7 km/h 22.5 km/h 86 % 0.0 mm
04:02 1.2 °C -0.7 °C 1002.3 hPa ENE 8.0 km/h 20.9 km/h 87 % 0.0 mm
04:12 1.1 °C -0.8 °C 1002.3 hPa East 6.4 km/h 19.3 km/h 87 % 0.0 mm
04:17 1.0 °C -0.9 °C 1002.3 hPa ENE 6.4 km/h 17.7 km/h 87 % 0.0 mm
04:22 0.9 °C -1.0 °C 1002.3 hPa ENE 11.3 km/h 17.7 km/h 87 % 0.0 mm
04:27 0.9 °C -1.0 °C 1002.3 hPa ESE 4.8 km/h 16.1 km/h 87 % 0.0 mm
04:32 0.8 °C -1.1 °C 1002.3 hPa ENE 3.2 km/h 14.5 km/h 87 % 0.0 mm
04:37 0.8 °C -1.0 °C 1002.3 hPa ENE 8.0 km/h 19.3 km/h 88 % 0.0 mm
04:42 0.8 °C -1.0 °C 1002.3 hPa East 9.7 km/h 19.3 km/h 88 % 0.0 mm
04:47 0.7 °C -1.1 °C 1002.3 hPa NNE 9.7 km/h 19.3 km/h 88 % 0.0 mm
04:52 0.7 °C -1.1 °C 1002.6 hPa NE 14.5 km/h 19.3 km/h 88 % 0.0 mm
04:57 0.7 °C -1.2 °C 1002.6 hPa ENE 14.5 km/h 19.3 km/h 87 % 0.0 mm
05:02 0.7 °C -1.2 °C 1002.6 hPa NE 16.1 km/h 19.3 km/h 87 % 0.0 mm
05:12 0.6 °C -1.3 °C 1002.9 hPa East 4.8 km/h 17.7 km/h 87 % 0.0 mm
05:17 0.5 °C -1.3 °C 1002.9 hPa ENE 14.5 km/h 17.7 km/h 88 % 0.0 mm
05:22 0.5 °C -1.3 °C 1002.9 hPa NNE 11.3 km/h 16.1 km/h 88 % 0.0 mm
05:27 0.4 °C -1.4 °C 1002.9 hPa SE 4.8 km/h 16.1 km/h 88 % 0.0 mm
05:32 0.3 °C -1.5 °C 1003.3 hPa ENE 1.6 km/h 20.9 km/h 88 % 0.0 mm
05:37 0.3 °C -1.5 °C 1003.3 hPa NE 8.0 km/h 20.9 km/h 88 % 0.0 mm
05:42 0.3 °C -1.3 °C 1003.3 hPa NE 19.3 km/h 19.3 km/h 89 % 0.0 mm
05:47 0.2 °C -1.4 °C 1003.6 hPa ESE 6.4 km/h 16.1 km/h 89 % 0.0 mm
05:52 0.2 °C -1.4 °C 1003.6 hPa NNE 4.8 km/h 19.3 km/h 89 % 0.0 mm
05:57 0.2 °C -1.4 °C 1003.3 hPa NE 12.9 km/h 19.3 km/h 89 % 0.0 mm
06:02 0.2 °C -1.4 °C 1003.3 hPa ENE 6.4 km/h 17.7 km/h 89 % 0.0 mm
06:07 0.2 °C -1.4 °C 1003.3 hPa ESE 6.4 km/h 17.7 km/h 89 % 0.0 mm
06:12 0.2 °C -1.4 °C 1003.3 hPa NE 11.3 km/h 20.9 km/h 89 % 0.0 mm
06:17 0.2 °C -1.4 °C 1003.3 hPa NNE 6.4 km/h 20.9 km/h 89 % 0.0 mm
06:22 0.2 °C -1.4 °C 1003.3 hPa South 3.2 km/h 17.7 km/h 89 % 0.0 mm
06:32 0.2 °C -1.4 °C 1003.6 hPa East 6.4 km/h 17.7 km/h 89 % 0.0 mm
06:37 0.2 °C -1.4 °C 1003.6 hPa East 3.2 km/h 14.5 km/h 89 % 0.0 mm
06:42 0.1 °C -1.5 °C 1003.9 hPa ENE 4.8 km/h 14.5 km/h 89 % 0.0 mm
06:47 0.1 °C -1.5 °C 1003.9 hPa NE 3.2 km/h 14.5 km/h 89 % 0.0 mm
06:52 0.1 °C -1.7 °C 1003.9 hPa NE 6.4 km/h 14.5 km/h 88 % 0.0 mm
07:02 0.1 °C -1.5 °C 1003.6 hPa ENE 9.7 km/h 14.5 km/h 89 % 0.0 mm
07:07 0.1 °C -1.5 °C 1003.6 hPa East 3.2 km/h 14.5 km/h 89 % 0.0 mm
07:17 0.1 °C -1.7 °C 1003.9 hPa ESE 1.6 km/h 14.5 km/h 88 % 0.0 mm
07:22 0.1 °C -1.7 °C 1003.9 hPa NE 3.2 km/h 16.1 km/h 88 % 0.0 mm
07:32 0.1 °C -1.7 °C 1003.9 hPa ENE 4.8 km/h 14.5 km/h 88 % 0.0 mm
07:37 0.0 °C -1.7 °C 1004.3 hPa ENE 1.6 km/h 14.5 km/h 88 % 0.0 mm
07:42 -0.1 °C -1.8 °C 1004.3 hPa NE 3.2 km/h 14.5 km/h 88 % 0.0 mm
07:52 0.0 °C -1.6 °C 1004.3 hPa NE 6.4 km/h 11.3 km/h 89 % 0.0 mm
07:57 0.1 °C -1.7 °C 1004.3 hPa ENE 3.2 km/h 11.3 km/h 88 % 0.0 mm
08:02 0.1 °C -1.7 °C 1004.6 hPa NE 8.0 km/h 16.1 km/h 88 % 0.0 mm
08:07 0.1 °C -1.7 °C 1004.6 hPa SE 1.6 km/h 16.1 km/h 88 % 0.0 mm
08:17 0.3 °C -1.6 °C 1005.0 hPa NNE 6.4 km/h 16.1 km/h 87 % 0.0 mm
08:22 0.4 °C -1.5 °C 1005.0 hPa ENE 3.2 km/h 9.7 km/h 87 % 0.0 mm
08:32 0.6 °C -1.3 °C 1005.3 hPa South 1.6 km/h 16.1 km/h 87 % 0.0 mm
08:37 0.7 °C -1.4 °C 1005.0 hPa SE 9.7 km/h 16.1 km/h 86 % 0.0 mm
08:42 0.8 °C -1.3 °C 1005.0 hPa East 3.2 km/h 17.7 km/h 86 % 0.0 mm
08:52 0.9 °C -1.2 °C 1005.3 hPa East 6.4 km/h 24.1 km/h 86 % 0.0 mm
09:02 1.1 °C -1.1 °C 1005.6 hPa ENE 9.7 km/h 24.1 km/h 85 % 0.0 mm
09:12 1.3 °C -0.9 °C 1005.6 hPa NE 4.8 km/h 16.1 km/h 85 % 0.0 mm
09:17 1.3 °C -1.1 °C 1005.6 hPa NE 3.2 km/h 16.1 km/h 84 % 0.0 mm
09:22 1.4 °C -1.0 °C 1005.6 hPa ENE 3.2 km/h 16.1 km/h 84 % 0.0 mm
09:32 1.8 °C -0.9 °C 1006.0 hPa SE 1.6 km/h 19.3 km/h 82 % 0.0 mm
09:42 2.1 °C -0.7 °C 1006.0 hPa NE 4.8 km/h 14.5 km/h 82 % 0.0 mm
09:52 2.2 °C -0.6 °C 1006.0 hPa NE 3.2 km/h 16.1 km/h 82 % 0.0 mm
10:02 2.3 °C -0.5 °C 1006.0 hPa East 3.2 km/h 14.5 km/h 82 % 0.0 mm
10:12 2.3 °C -0.6 °C 1006.3 hPa ENE 8.0 km/h 14.5 km/h 81 % 0.0 mm
10:17 2.3 °C -0.6 °C 1006.3 hPa NNE 8.0 km/h 16.1 km/h 81 % 0.0 mm
10:22 2.4 °C -0.4 °C 1006.7 hPa East 1.6 km/h 20.9 km/h 82 % 0.0 mm
10:32 2.8 °C 0.0 °C 1006.7 hPa Calm   20.9 km/h 82 % 0.0 mm
10:37 2.9 °C 0.0 °C 1006.7 hPa NE 3.2 km/h 12.9 km/h 81 % 0.0 mm
10:42 3.2 °C 0.1 °C 1006.7 hPa Calm   12.9 km/h 80 % 0.0 mm
10:47 3.6 °C 0.3 °C 1006.7 hPa Calm   12.9 km/h 79 % 0.0 mm
10:52 3.6 °C 0.1 °C 1006.7 hPa NE 6.4 km/h 12.9 km/h 78 % 0.0 mm
10:57 3.6 °C -0.1 °C 1006.7 hPa NE 9.7 km/h 17.7 km/h 77 % 0.0 mm
11:02 3.5 °C 0.2 °C 1006.7 hPa East 1.6 km/h 17.7 km/h 79 % 0.0 mm
11:07 3.5 °C 0.0 °C 1006.7 hPa NE 1.6 km/h 22.5 km/h 78 % 0.0 mm
11:12 3.6 °C -0.1 °C 1007.0 hPa NNE 8.0 km/h 22.5 km/h 77 % 0.0 mm
11:17 3.6 °C 0.3 °C 1007.0 hPa NE 6.4 km/h 22.5 km/h 79 % 0.0 mm
11:22 3.6 °C 0.1 °C 1007.0 hPa ENE 3.2 km/h 19.3 km/h 78 % 0.0 mm
11:27 3.6 °C 0.1 °C 1007.0 hPa ENE 4.8 km/h 25.7 km/h 78 % 0.0 mm
11:32 3.6 °C 0.1 °C 1007.3 hPa ENE 8.0 km/h 25.7 km/h 78 % 0.0 mm
11:37 3.7 °C 0.2 °C 1007.3 hPa East 1.6 km/h 25.7 km/h 78 % 0.0 mm
11:42 3.8 °C 0.3 °C 1007.3 hPa SE 4.8 km/h 25.7 km/h 78 % 0.0 mm
11:47 3.9 °C 0.4 °C 1007.3 hPa ENE 3.2 km/h 12.9 km/h 78 % 0.0 mm
11:52 4.1 °C 0.4 °C 1007.7 hPa NNE 3.2 km/h 16.1 km/h 77 % 0.0 mm
11:57 4.2 °C 0.5 °C 1007.7 hPa NNE 3.2 km/h 16.1 km/h 77 % 0.0 mm
12:02 4.5 °C 0.8 °C 1007.7 hPa NE 4.8 km/h 16.1 km/h 77 % 0.0 mm
12:07 4.6 °C 0.6 °C 1007.7 hPa North 6.4 km/h 12.9 km/h 75 % 0.0 mm
12:12 4.6 °C 0.7 °C 1007.7 hPa NE 9.7 km/h 12.9 km/h 76 % 0.0 mm
12:17 4.6 °C 0.7 °C 1007.7 hPa NE 1.6 km/h 12.9 km/h 76 % 0.0 mm
12:22 4.8 °C 0.9 °C 1007.7 hPa East 1.6 km/h 12.9 km/h 76 % 0.0 mm
12:32 5.3 °C 0.9 °C 1008.0 hPa NNE 3.2 km/h 14.5 km/h 73 % 0.0 mm
12:42 5.7 °C 1.4 °C 1008.0 hPa East 3.2 km/h 20.9 km/h 74 % 0.0 mm
12:47 5.7 °C 1.4 °C 1008.0 hPa SE 6.4 km/h 14.5 km/h 74 % 0.0 mm
12:52 5.4 °C 1.1 °C 1007.7 hPa East 3.2 km/h 14.5 km/h 74 % 0.0 mm
12:57 5.2 °C 0.8 °C 1008.0 hPa NNE 11.3 km/h 19.3 km/h 73 % 0.0 mm
13:02 5.0 °C 0.8 °C 1008.0 hPa NE 1.6 km/h 19.3 km/h 74 % 0.0 mm
13:12 4.9 °C 1.0 °C 1007.7 hPa North 4.8 km/h 16.1 km/h 76 % 0.0 mm
13:17 4.9 °C 0.8 °C 1008.0 hPa NE 6.4 km/h 12.9 km/h 75 % 0.0 mm
13:22 4.9 °C 1.0 °C 1008.0 hPa SSW 6.4 km/h 12.9 km/h 76 % 0.0 mm
13:27 5.0 °C 1.1 °C 1008.0 hPa NNE 8.0 km/h 12.9 km/h 76 % 0.0 mm
13:32 5.2 °C 1.1 °C 1008.0 hPa NE 6.4 km/h 12.9 km/h 75 % 0.0 mm
13:37 5.3 °C 1.0 °C 1008.0 hPa NNE 4.8 km/h 14.5 km/h 74 % 0.0 mm
13:42 5.7 °C 1.6 °C 1008.0 hPa NNE 3.2 km/h 14.5 km/h 75 % 0.0 mm
13:47 5.9 °C 1.4 °C 1007.7 hPa NE 3.2 km/h 14.5 km/h 73 % 0.0 mm
13:52 5.8 °C 1.1 °C 1007.7 hPa NE 4.8 km/h 12.9 km/h 72 % 0.0 mm
13:57 5.8 °C 1.3 °C 1007.7 hPa Calm   19.3 km/h 73 % 0.0 mm
14:02 5.8 °C 1.3 °C 1007.7 hPa NNE 6.4 km/h 19.3 km/h 73 % 0.0 mm
14:07 5.7 °C 1.2 °C 1007.7 hPa NE 1.6 km/h 19.3 km/h 73 % 0.0 mm
14:12 5.6 °C 0.8 °C 1007.7 hPa ENE 4.8 km/h 19.3 km/h 71 % 0.0 mm
14:17 5.7 °C 1.0 °C 1007.7 hPa NE 4.8 km/h 14.5 km/h 72 % 0.0 mm
14:22 5.7 °C 1.0 °C 1007.7 hPa SE 4.8 km/h 22.5 km/h 72 % 0.0 mm
14:27 5.8 °C 0.9 °C 1007.7 hPa NE 11.3 km/h 22.5 km/h 71 % 0.0 mm
14:32 5.9 °C 1.2 °C 1007.7 hPa NE 3.2 km/h 22.5 km/h 72 % 0.0 mm
14:37 6.1 °C 1.4 °C 1007.7 hPa NNE 4.8 km/h 19.3 km/h 72 % 0.0 mm
14:42 6.0 °C 1.1 °C 1008.0 hPa NNE 4.8 km/h 19.3 km/h 71 % 0.0 mm
14:47 6.1 °C 1.6 °C 1007.7 hPa Calm   9.7 km/h 73 % 0.0 mm
14:52 6.0 °C 0.9 °C 1007.7 hPa NE 6.4 km/h 9.7 km/h 70 % 0.0 mm
14:57 5.8 °C 1.1 °C 1007.7 hPa NE 9.7 km/h 9.7 km/h 72 % 0.0 mm
15:02 5.6 °C 1.0 °C 1008.0 hPa NNE 3.2 km/h 22.5 km/h 72 % 0.0 mm
15:07 5.5 °C 1.0 °C 1008.0 hPa NNE 4.8 km/h 22.5 km/h 73 % 0.0 mm
15:12 5.5 °C 0.7 °C 1008.0 hPa East 3.2 km/h 22.5 km/h 71 % 0.0 mm
15:17 5.4 °C 0.8 °C 1008.0 hPa NW 3.2 km/h 12.9 km/h 72 % 0.0 mm
15:22 5.6 °C 1.1 °C 1008.4 hPa ENE 9.7 km/h 17.7 km/h 73 % 0.0 mm
15:27 5.6 °C 1.3 °C 1008.4 hPa NE 4.8 km/h 17.7 km/h 74 % 0.0 mm
15:32 5.4 °C 1.3 °C 1008.4 hPa NE 9.7 km/h 17.7 km/h 75 % 0.0 mm
15:37 5.3 °C 1.2 °C 1008.4 hPa SE 6.4 km/h 16.1 km/h 75 % 0.0 mm
15:42 5.3 °C 1.2 °C 1008.7 hPa ENE 6.4 km/h 16.1 km/h 75 % 0.0 mm
15:47 5.1 °C 1.0 °C 1008.7 hPa NE 4.8 km/h 20.9 km/h 75 % 0.0 mm
15:52 5.2 °C 1.3 °C 1008.7 hPa ENE 1.6 km/h 20.9 km/h 76 % 0.0 mm
15:57 4.9 °C 1.0 °C 1008.7 hPa East 1.6 km/h 19.3 km/h 76 % 0.0 mm
16:07 4.6 °C 1.1 °C 1009.0 hPa ENE 4.8 km/h 19.3 km/h 78 % 0.0 mm
16:12 4.5 °C 1.2 °C 1009.0 hPa NE 4.8 km/h 19.3 km/h 79 % 0.0 mm
16:17 4.3 °C 1.0 °C 1009.0 hPa West 3.2 km/h 20.9 km/h 79 % 0.0 mm
16:22 4.2 °C 1.1 °C 1009.4 hPa NE 6.4 km/h 20.9 km/h 80 % 0.0 mm
16:27 4.2 °C 1.2 °C 1009.4 hPa NNE 9.7 km/h 17.7 km/h 81 % 0.0 mm
16:32 4.1 °C 1.1 °C 1009.4 hPa East 1.6 km/h 17.7 km/h 81 % 0.0 mm
16:37 4.1 °C 1.5 °C 1009.4 hPa NE 1.6 km/h 12.9 km/h 83 % 0.0 mm
16:42 4.0 °C 1.2 °C 1009.4 hPa NE 1.6 km/h 16.1 km/h 82 % 0.0 mm
16:47 3.9 °C 1.3 °C 1009.4 hPa SSE 1.6 km/h 17.7 km/h 83 % 0.0 mm
16:52 3.9 °C 1.3 °C 1009.4 hPa ENE 3.2 km/h 17.7 km/h 83 % 0.0 mm
16:57 3.8 °C 1.2 °C 1009.4 hPa ENE 1.6 km/h 17.7 km/h 83 % 0.0 mm
17:02 3.7 °C 1.1 °C 1009.4 hPa East 8.0 km/h 17.7 km/h 83 % 0.0 mm
17:12 3.7 °C 1.2 °C 1009.7 hPa ENE 1.6 km/h 17.7 km/h 84 % 0.0 mm
17:17 3.7 °C 1.4 °C 1009.7 hPa NNE 4.8 km/h 16.1 km/h 85 % 0.0 mm
17:22 3.6 °C 1.3 °C 1009.7 hPa East 3.2 km/h 11.3 km/h 85 % 0.0 mm
17:32 3.6 °C 1.5 °C 1010.0 hPa ENE 1.6 km/h 12.9 km/h 86 % 0.0 mm
17:37 3.5 °C 1.4 °C 1010.0 hPa NE 6.4 km/h 12.9 km/h 86 % 0.0 mm
17:42 3.5 °C 1.5 °C 1010.0 hPa East 1.6 km/h 12.9 km/h 87 % 0.0 mm
17:52 3.4 °C 1.6 °C 1010.0 hPa NNW 4.8 km/h 14.5 km/h 88 % 0.0 mm
17:57 3.3 °C 1.5 °C 1010.0 hPa NE 6.4 km/h 14.5 km/h 88 % 0.0 mm
18:02 3.3 °C 1.5 °C 1010.0 hPa NE 3.2 km/h 12.9 km/h 88 % 0.0 mm
18:07 3.2 °C 1.4 °C 1010.0 hPa ENE 4.8 km/h 16.1 km/h 88 % 0.0 mm
18:12 3.2 °C 1.6 °C 1010.0 hPa ENE 4.8 km/h 16.1 km/h 89 % 0.0 mm
18:17 3.1 °C 1.5 °C 1010.0 hPa SE 8.0 km/h 16.1 km/h 89 % 0.0 mm
18:22 3.1 °C 1.3 °C 1010.0 hPa NE 4.8 km/h 16.1 km/h 88 % 0.0 mm
18:32 3.1 °C 1.5 °C 1010.4 hPa ENE 4.8 km/h 14.5 km/h 89 % 0.0 mm
18:42 3.0 °C 1.4 °C 1010.4 hPa ENE 6.4 km/h 12.9 km/h 89 % 0.0 mm
18:52 2.9 °C 1.3 °C 1010.0 hPa SSE 6.4 km/h 12.9 km/h 89 % 0.0 mm
18:57 2.9 °C 1.3 °C 1010.0 hPa NE 4.8 km/h 12.9 km/h 89 % 0.0 mm
19:02 2.9 °C 1.4 °C 1010.0 hPa ENE 4.8 km/h 14.5 km/h 90 % 0.0 mm
19:07 2.8 °C 1.2 °C 1010.4 hPa ENE 8.0 km/h 16.1 km/h 89 % 0.0 mm
19:12 2.7 °C 1.1 °C 1010.7 hPa ENE 3.2 km/h 16.1 km/h 89 % 0.0 mm
19:17 2.8 °C 1.2 °C 1010.7 hPa NE 9.7 km/h 16.1 km/h 89 % 0.0 mm
19:32 2.9 °C 1.1 °C 1011.1 hPa NE 9.7 km/h 17.7 km/h 88 % 0.0 mm
19:37 2.9 °C 1.0 °C 1010.7 hPa NE 12.9 km/h 17.7 km/h 87 % 0.0 mm
19:42 2.9 °C 1.0 °C 1011.1 hPa ESE 4.8 km/h 16.1 km/h 87 % 0.0 mm
19:47 2.9 °C 1.0 °C 1011.1 hPa East 3.2 km/h 14.5 km/h 87 % 0.0 mm
19:57 2.9 °C 0.8 °C 1011.1 hPa NE 8.0 km/h 20.9 km/h 86 % 0.0 mm
20:02 2.8 °C 0.9 °C 1011.1 hPa ENE 4.8 km/h 20.9 km/h 87 % 0.0 mm
20:12 2.7 °C 0.8 °C 1011.4 hPa ESE 8.0 km/h 16.1 km/h 87 % 0.0 mm
20:17 2.6 °C 0.7 °C 1011.1 hPa NNE 8.0 km/h 17.7 km/h 87 % 0.0 mm
20:22 2.6 °C 0.5 °C 1011.1 hPa ENE 6.4 km/h 17.7 km/h 86 % 0.0 mm
20:27 2.6 °C 0.7 °C 1011.1 hPa SE 3.2 km/h 16.1 km/h 87 % 0.0 mm
20:32 2.6 °C 0.5 °C 1011.4 hPa East 6.4 km/h 16.1 km/h 86 % 0.0 mm
20:37 2.6 °C 0.5 °C 1011.1 hPa NE 12.9 km/h 16.1 km/h 86 % 0.0 mm
20:42 2.6 °C 0.5 °C 1011.4 hPa ENE 9.7 km/h 16.1 km/h 86 % 0.0 mm
20:47 2.5 °C 0.2 °C 1011.4 hPa ESE 4.8 km/h 17.7 km/h 85 % 0.0 mm
20:52 2.5 °C 0.2 °C 1011.4 hPa East 6.4 km/h 17.7 km/h 85 % 0.0 mm
20:57 2.6 °C 0.3 °C 1011.4 hPa ENE 16.1 km/h 17.7 km/h 85 % 0.0 mm
21:02 2.5 °C 0.2 °C 1011.4 hPa NE 12.9 km/h 16.1 km/h 85 % 0.0 mm
21:07 2.5 °C 0.2 °C 1011.4 hPa ESE 6.4 km/h 19.3 km/h 85 % 0.0 mm
21:12 2.5 °C 0.2 °C 1011.4 hPa NE 6.4 km/h 19.3 km/h 85 % 0.0 mm
21:17 2.4 °C 0.1 °C 1011.4 hPa East 4.8 km/h 19.3 km/h 85 % 0.0 mm
21:27 2.4 °C 0.1 °C 1011.7 hPa ENE 4.8 km/h 19.3 km/h 85 % 0.0 mm
21:32 2.4 °C 0.0 °C 1011.7 hPa ENE 11.3 km/h 19.3 km/h 84 % 0.0 mm
21:42 2.4 °C 0.0 °C 1011.7 hPa East 3.2 km/h 19.3 km/h 84 % 0.0 mm
21:47 2.4 °C 0.0 °C 1011.7 hPa NE 11.3 km/h 19.3 km/h 84 % 0.0 mm
21:52 2.3 °C -0.1 °C 1011.7 hPa ENE 14.5 km/h 22.5 km/h 84 % 0.0 mm
21:57 2.3 °C -0.1 °C 1011.7 hPa ENE 6.4 km/h 22.5 km/h 84 % 0.0 mm
22:02 2.3 °C -0.1 °C 1011.7 hPa NE 11.3 km/h 22.5 km/h 84 % 0.0 mm
22:12 2.4 °C -0.2 °C 1011.7 hPa NE 6.4 km/h 19.3 km/h 83 % 0.0 mm
22:17 2.4 °C -0.2 °C 1011.7 hPa NNE 14.5 km/h 20.9 km/h 83 % 0.0 mm
22:22 2.3 °C -0.1 °C 1011.7 hPa ESE 6.4 km/h 20.9 km/h 84 % 0.0 mm
22:27 2.3 °C -0.3 °C 1011.7 hPa ENE 12.9 km/h 20.9 km/h 83 % 0.0 mm
22:32 2.3 °C -0.1 °C 1011.4 hPa ENE 8.0 km/h 19.3 km/h 84 % 0.0 mm
22:42 2.3 °C -0.3 °C 1011.4 hPa SE 3.2 km/h 20.9 km/h 83 % 0.0 mm
22:47 2.3 °C -0.3 °C 1011.4 hPa NE 12.9 km/h 20.9 km/h 83 % 0.0 mm
22:52 2.2 °C -0.4 °C 1011.4 hPa NNE 8.0 km/h 20.9 km/h 83 % 0.0 mm
22:57 2.2 °C -0.4 °C 1011.7 hPa NE 16.1 km/h 19.3 km/h 83 % 0.0 mm
23:02 2.2 °C -0.4 °C 1011.7 hPa NNE 12.9 km/h 20.9 km/h 83 % 0.0 mm
23:12 2.1 °C -0.3 °C 1011.7 hPa NNE 8.0 km/h 20.9 km/h 84 % 0.0 mm
23:17 2.1 °C -0.3 °C 1011.7 hPa ENE 8.0 km/h 19.3 km/h 84 % 0.0 mm
23:22 2.1 °C -0.5 °C 1011.4 hPa NE 6.4 km/h 16.1 km/h 83 % 0.0 mm
23:32 2.1 °C -0.5 °C 1011.7 hPa East 9.7 km/h 24.1 km/h 83 % 0.0 mm
23:37 2.1 °C -0.7 °C 1011.7 hPa NNE 8.0 km/h 24.1 km/h 82 % 0.0 mm
23:42 2.2 °C -0.6 °C 1011.7 hPa NE 4.8 km/h 24.1 km/h 82 % 0.0 mm
23:47 2.1 °C -0.7 °C 1011.7 hPa NE 12.9 km/h 17.7 km/h 82 % 0.0 mm
23:52 2.2 °C -0.7 °C 1011.7 hPa SSE 4.8 km/h 16.1 km/h 81 % 0.0 mm
23:57 2.2 °C -0.7 °C 1011.4 hPa ESE 4.8 km/h 20.9 km/h 81 % 0.0 mm
Meteo18
Compliments of Weather Underground - 4 mb

Script developed by  Jim McMurry - jmcmurry@mwt.net Adapted for the template by  Wim van der Kuil - Leuven-Template.eu

You find our weather info also at:

European Weather Network

Weather Underground

Equipment we use:

Weather-station
Davis Vue

Weather-program
Meteohub

Weather-server
Raspberry PI 2 B+

Provider
1 and 1

Davis Vue

Meteohub

Raspberry PI 2 B+

1 and 1